"Pseudo-MPEC" for GG0356

Created 2023 Sep 23 14:22:15 UT using Find_Orb

Click here for an explanation of pseudo-MPECs

 
 Astrometry: 
     GG0356 *MC2023 09 02)VAstrometry0WC9Yvj#nr9RLf3oa8S*redacted;*Mah@d#Ak4^Q62
     GG0356  MC2023 09 02m:(JbTclickbhere,forD(tmjfFtlQexplanation!.sArSxmD3eQ62

Station data:
(Q62) iTelescope Observatory, Siding Spring  (S31.273286 E149.064420)
   Australia/NSW.  Observers H. Sato, T. Prystavski, M. Mattiazzo, A. Pearce,
   F. D. Romanov. 0.51-m f/6.8 astrograph + CCD + f/4.5 focal reducer0.43-m
   f/6.8 astrograph + CCD + focal reducer0.43-m f/6.8 astrograph + CCD0.10-m
   f/5 astrograph + CCD0.127-m f/5.6 refractor + CCD0.50-m f/6.8 reflector +
   CCD0.30-m f/9 reflector + CCD.

Orbital elements:  GG0356
   Perihelion 2023 Aug 17.84502 +/- 17.8 TT = 20:16:49 (JD 2460174.34502)
Epoch 2023 Sep  3.0 TT = JDT 2460190.5   Earth MOID: 0.0403      AutoNEOCP
M   1.72720201 +/- 9                (J2000 ecliptic)
n   0.10691453 +/- 0.202            Peri.  188.47673 +/- 70
a   4.39654538 +/- 5.55             Node   136.69300 +/- 53
e   0.7613468 +/- 0.287             Incl.   41.04633 +/- 10
P   9.22                   H 19.92  G  0.15   U 11.7  SR
q 1.04924923 +/- 0.103    Q 7.74384154 +/- 39.6
From 2 observations 2023 Sept. 2 (27.8 min); mean residual 0".01
Residuals in arcseconds: 
230902 Q62  .01-  .01-    230902 Q62  .01-  .01-    

Ephemerides (geocentric):
Date (UTC) HH   RA             Dec           delta  r     elong  mag " sig PA
---- --------  ------------   ------------  ------ ------ -----  --- --------
2023 09 23 14  05 45 28.268   -69 05 59.98  .59086 1.1760  91.3 21.2  47d 169
2023 09 23 15  05 45 25.401   -69 05 48.90  .59135 1.1763  91.3 21.2  47d 169
2023 09 23 16  05 45 22.527   -69 05 37.83  .59183 1.1765  91.3 21.2  47d 169
2023 09 23 17  05 45 19.646   -69 05 26.78  .59232 1.1768  91.3 21.2  47d 169
2023 09 23 18  05 45 16.758   -69 05 15.73  .59280 1.1771  91.3 21.2  47d 169
2023 09 23 19  05 45 13.863   -69 05 04.69  .59328 1.1773  91.3 21.2  47d 169
2023 09 23 20  05 45 10.961   -69 04 53.66  .59377 1.1776  91.3 21.2  47d 169
2023 09 23 21  05 45 08.052   -69 04 42.64  .59425 1.1779  91.3 21.2  47d 169
2023 09 23 22  05 45 05.136   -69 04 31.63  .59473 1.1781  91.3 21.3  47d 169
2023 09 23 23  05 45 02.213   -69 04 20.63  .59522 1.1784  91.3 21.3  47d 169
2023 09 24 00  05 44 59.283   -69 04 09.63  .59570 1.1787  91.3 21.3  47d 169
2023 09 24 01  05 44 56.346   -69 03 58.65  .59618 1.1789  91.3 21.3  47d 169
2023 09 24 02  05 44 53.402   -69 03 47.68  .59666 1.1792  91.3 21.3  47d 169
2023 09 24 03  05 44 50.452   -69 03 36.71  .59714 1.1795  91.3 21.3  47d 169
2023 09 24 04  05 44 47.494   -69 03 25.75  .59763 1.1797  91.3 21.3  47d 169
2023 09 24 05  05 44 44.529   -69 03 14.81  .59811 1.1800  91.3 21.3  47d 169
2023 09 24 06  05 44 41.558   -69 03 03.87  .59859 1.1803  91.3 21.3  47d 169
2023 09 24 07  05 44 38.579   -69 02 52.94  .59907 1.1806  91.3 21.3  47d 168
2023 09 24 08  05 44 35.594   -69 02 42.01  .59955 1.1808  91.3 21.3  47d 168
2023 09 24 09  05 44 32.601   -69 02 31.10  .60003 1.1811  91.3 21.3  47d 168
2023 09 24 10  05 44 29.602   -69 02 20.19  .60051 1.1814  91.4 21.3  47d 168
2023 09 24 11  05 44 26.596   -69 02 09.29  .60100 1.1816  91.4 21.3  47d 168
2023 09 24 12  05 44 23.582   -69 01 58.40  .60148 1.1819  91.4 21.3  47d 168
2023 09 24 13  05 44 20.563   -69 01 47.52  .60196 1.1822  91.4 21.3  47d 168
2023 09 24 14  05 44 17.536   -69 01 36.65  .60244 1.1824  91.4 21.3  47d 168
2023 09 24 15  05 44 14.502   -69 01 25.78  .60292 1.1827  91.4 21.3  47d 168
2023 09 24 16  05 44 11.461   -69 01 14.92  .60340 1.1830  91.4 21.3  48d 168
2023 09 24 17  05 44 08.414   -69 01 04.07  .60388 1.1833  91.4 21.3  48d 168
2023 09 24 18  05 44 05.359   -69 00 53.22  .60435 1.1835  91.4 21.3  48d 168
2023 09 24 19  05 44 02.298   -69 00 42.38  .60483 1.1838  91.4 21.3  48d 168
2023 09 24 20  05 43 59.230   -69 00 31.55  .60531 1.1841  91.4 21.3  48d 168
2023 09 24 21  05 43 56.155   -69 00 20.73  .60579 1.1843  91.4 21.3  48d 168
2023 09 24 22  05 43 53.074   -69 00 09.91  .60627 1.1846  91.4 21.3  48d 168
2023 09 24 23  05 43 49.985   -68 59 59.10  .60675 1.1849  91.4 21.3  48d 168
2023 09 25 00  05 43 46.890   -68 59 48.29  .60723 1.1852  91.4 21.3  48d 168
2023 09 25 01  05 43 43.788   -68 59 37.50  .60771 1.1854  91.4 21.3  48d 168
2023 09 25 02  05 43 40.679   -68 59 26.71  .60818 1.1857  91.4 21.3  48d 168
2023 09 25 03  05 43 37.563   -68 59 15.92  .60866 1.1860  91.4 21.3  48d 168
2023 09 25 04  05 43 34.441   -68 59 05.14  .60914 1.1862  91.4 21.3  48d 168
2023 09 25 05  05 43 31.311   -68 58 54.37  .60962 1.1865  91.4 21.3  48d 168
2023 09 25 06  05 43 28.175   -68 58 43.60  .61009 1.1868  91.4 21.3  48d 168
2023 09 25 07  05 43 25.032   -68 58 32.84  .61057 1.1871  91.4 21.3  48d 168
2023 09 25 08  05 43 21.883   -68 58 22.09  .61105 1.1873  91.4 21.3  48d 168
2023 09 25 09  05 43 18.726   -68 58 11.34  .61153 1.1876  91.4 21.3  48d 168
2023 09 25 10  05 43 15.563   -68 58 00.59  .61200 1.1879  91.4 21.3  48d 168
2023 09 25 11  05 43 12.393   -68 57 49.86  .61248 1.1882  91.4 21.3  48d 168
2023 09 25 12  05 43 09.217   -68 57 39.12  .61295 1.1884  91.4 21.3  48d 168
2023 09 25 13  05 43 06.033   -68 57 28.39  .61343 1.1887  91.4 21.3  48d 168